Location: Del Amo
(33.8464°N, 118.2104°W)
Time: 08:03:34
(UTC+00:00)

Vanguard 3 - Pass Details

Date: 19 September 2024
Orbit: 507 x 3223 km, 33.3° (Epoch: 12 October)

Event Time Altitude Azimuth Distance (km) Brightness Sun altitude
Exits shadow 11:10:28 20° 191° (SSW) 4,248 10.4 -30.7°
Maximum altitude 11:20:14 39° 139° (SE) 3,830 10.6 -28.9°
Drops below altitude 10° 11:37:11 10° 80° (E) 6,153 12.6 -25.6°
Sets 11:42:25 0° 73° (ENE) 7,117 13.4 -24.6°
